Pecos, TX

4:32 PM CST on January 18, 2018 (GMT -0600)
Pecos Municipal

Weather History for KPEQ - December, 2012

Change the Weather History Date:

Wednesday, December 5, 2012

  Actual Average Record
Temperature  
Mean Temperature 52 °F -  
Max Temperature 71 °F 64 °F 89 °F (1954)
Min Temperature 32 °F 31 °F 14 °F (1950)
Degree Days  
Heating Degree Days 14    
Growing Degree Days 2 (Base 50)    
Moisture  
Dew Point 30 °F    
Average Humidity 54    
Maximum Humidity 74    
Minimum Humidity 25    
Precipitation  
Precipitation 0.00 in - - ()
Sea Level Pressure  
Sea Level Pressure 30.17 in    
Wind  
Wind Speed 4 mph (SSW)    
Max Wind Speed 8 mph    
Max Gust Speed -    
Visibility 10 miles    
Events      
Averages and records for this station are not official NWS values.
T = Trace of Precipitation, MM = Missing Value Source: NWS Daily Summary

Daily Weather History Graph

Daily Weather History Graph

Search for Another Location

Airport or City:

Trip Planner

Search our weather history database for the weather conditions in past years. The results will help you decide how hot, cold, wet, or windy it might be!

Date:

Astronomy

Dec. 05, 2012 Rise Set
Actual Time 7:38 AM CST 5:50 PM CST
Civil Twilight 7:12 AM CST 6:17 PM CST
Nautical Twilight 6:42 AM CST 6:47 PM CST
Astronomical Twilight 6:12 AM CST 7:17 PM CST
Moon No Moon Rise 12:20 PM CST (12/5)
Length of Visible Light 11h 05m
Length of Day
10h 11m
Waning Gibbous, 59% of the Moon is Illuminated
Dec 5
Waning Gibbous
Dec 6
Last Quarter
Dec 13
New
Dec 19
First Quarter
Dec 28
Full

Hourly Weather History & Observations

Time (CST) Temp. Windchill Dew Point Humidity Pressure Visibility Wind Dir Wind Speed Gust Speed Precip Events Conditions
12:15 AM 39.0 °F 34.0 °F 28.0 °F 65% 30.33 in 10.0 mi SW 6.9 mph - N/A   Clear
12:35 AM 38.1 °F 32.3 °F 27.5 °F 66% 30.33 in 10.0 mi SW 8.1 mph - N/A   Clear
12:55 AM 38.5 °F 33.4 °F 28.0 °F 66% 30.32 in 10.0 mi SSW 6.9 mph - N/A   Clear
1:15 AM 38.3 °F 33.2 °F 27.9 °F 66% 30.32 in 10.0 mi SW 6.9 mph - N/A   Clear
1:55 AM 37.0 °F 33.3 °F 27.3 °F 68% 30.32 in 10.0 mi SW 4.6 mph - N/A   Clear
2:15 AM 36.5 °F 31.0 °F 27.1 °F 69% 30.32 in 10.0 mi WSW 6.9 mph - N/A   Clear
2:35 AM 37.0 °F 33.3 °F 27.0 °F 67% 30.32 in 10.0 mi WSW 4.6 mph - N/A   Clear
2:55 AM 35.8 °F 33.0 °F 26.4 °F 69% 30.31 in 10.0 mi SW 3.5 mph - N/A   Clear
3:15 AM 35.2 °F - 25.7 °F 68% 30.31 in 10.0 mi Calm Calm - N/A   Clear
3:35 AM 32.9 °F - 24.8 °F 72% 30.30 in 10.0 mi Calm Calm - N/A   Clear
3:55 AM 33.6 °F - 25.3 °F 72% 30.30 in 10.0 mi Calm Calm - N/A   Clear
4:15 AM 33.1 °F 28.7 °F 24.4 °F 71% 30.30 in 10.0 mi West 4.6 mph - N/A   Clear
4:35 AM 32.5 °F 26.2 °F 24.6 °F 73% 30.30 in 10.0 mi West 6.9 mph - N/A   Clear
4:55 AM 33.8 °F 29.6 °F 25.5 °F 72% 30.29 in 10.0 mi West 4.6 mph - N/A   Clear
5:15 AM 32.9 °F 27.5 °F 25.3 °F 74% 30.29 in 10.0 mi WNW 5.8 mph - N/A   Clear
5:35 AM 33.3 °F 30.2 °F 25.7 °F 74% 30.29 in 10.0 mi West 3.5 mph - N/A   Clear
5:55 AM 32.5 °F - 25.2 °F 74% 30.29 in 10.0 mi Calm Calm - N/A   Clear
6:15 AM 32.7 °F - 25.2 °F 74% 30.29 in 10.0 mi Calm Calm - N/A   Clear
6:35 AM 32.9 °F - 25.2 °F 73% 30.29 in 10.0 mi Calm Calm - N/A   Clear
6:55 AM 32.0 °F 27.5 °F 24.1 °F 73% 30.30 in 10.0 mi West 4.6 mph - N/A   Clear
8:35 AM 35.4 °F - 25.7 °F 68% 30.31 in 10.0 mi Calm Calm - N/A   Clear
8:55 AM 37.6 °F - 27.3 °F 66% 30.31 in 10.0 mi Calm Calm - N/A   Clear
9:15 AM 39.9 °F - 28.9 °F 65% 30.30 in 10.0 mi Calm Calm - N/A   Clear
9:35 AM 42.6 °F - 30.2 °F 61% 30.30 in 10.0 mi Calm Calm - N/A   Clear
10:15 AM 48.0 °F - 32.0 °F 54% 30.29 in 10.0 mi Calm Calm - N/A   Clear
10:35 AM 49.3 °F - 32.2 °F 52% 30.29 in 10.0 mi Calm Calm - N/A   Clear
10:55 AM 51.8 °F - 32.5 °F 48% 30.27 in 10.0 mi East 3.5 mph - N/A   Clear
11:15 AM 54.5 °F - 32.7 °F 44% 30.26 in 10.0 mi ESE 3.5 mph - N/A   Clear
11:35 AM 55.6 °F - 32.5 °F 42% 30.25 in 10.0 mi East 3.5 mph - N/A   Clear
12:35 PM 60.4 °F - 33.6 °F 37% 30.20 in 10.0 mi East 3.5 mph - N/A   Clear
2:15 PM 68.2 °F - 34.9 °F 29% 30.12 in 10.0 mi SE 3.5 mph - N/A   Clear
2:55 PM 69.8 °F - 34.3 °F 27% 30.08 in 10.0 mi East 3.5 mph - N/A   Clear
3:15 PM 71.4 °F - 34.3 °F 26% 30.07 in 10.0 mi East 3.5 mph - N/A   Clear
3:35 PM 71.1 °F - 34.0 °F 26% 30.06 in 10.0 mi Calm Calm - N/A   Clear
4:15 PM 71.8 °F - 34.2 °F 25% 30.04 in 10.0 mi ESE 5.8 mph - N/A   Clear
4:35 PM 71.1 °F - 34.2 °F 26% 30.04 in 10.0 mi ESE 6.9 mph - N/A   Clear
4:55 PM 70.2 °F - 34.2 °F 27% 30.04 in 10.0 mi East 4.6 mph - N/A   Clear
5:15 PM 68.0 °F - 34.0 °F 28% 30.03 in 10.0 mi ESE 3.5 mph - N/A   Clear
5:35 PM 67.1 °F - 34.2 °F 30% 30.03 in 10.0 mi Calm Calm - N/A   Clear
5:55 PM 65.3 °F - 34.0 °F 31% 30.03 in 10.0 mi East 4.6 mph - N/A   Clear
6:15 PM 62.2 °F - 33.3 °F 34% 30.03 in 10.0 mi ESE 3.5 mph - N/A   Clear
6:35 PM 60.1 °F - 32.9 °F 36% 30.02 in 10.0 mi East 3.5 mph - N/A   Clear
6:55 PM 58.3 °F - 32.4 °F 38% 30.02 in 10.0 mi ESE 4.6 mph - N/A   Clear
7:15 PM 56.7 °F - 32.9 °F 41% 30.02 in 10.0 mi ESE 4.6 mph - N/A   Clear
7:35 PM 55.9 °F - 33.3 °F 42% 30.02 in 10.0 mi SSE 4.6 mph - N/A   Clear
8:35 PM 50.2 °F - 32.0 °F 50% 30.02 in 10.0 mi SW 5.8 mph - N/A   Clear
8:55 PM 48.4 °F - 30.7 °F 51% 30.02 in 10.0 mi SW 6.9 mph - N/A   Clear
9:15 PM 47.8 °F - 30.9 °F 52% 30.01 in 10.0 mi SW 6.9 mph - N/A   Clear
9:35 PM 46.8 °F - 30.7 °F 54% 30.00 in 10.0 mi SW 8.1 mph - N/A   Clear
9:55 PM 46.9 °F - 30.6 °F 53% 30.00 in 10.0 mi West 6.9 mph - N/A   Clear
10:15 PM 44.8 °F 41.6 °F 29.8 °F 56% 30.00 in 10.0 mi West 5.8 mph - N/A   Clear
10:35 PM 46.6 °F - 30.7 °F 54% 29.99 in 10.0 mi West 5.8 mph - N/A   Clear
10:55 PM 44.2 °F 42.7 °F 30.0 °F 57% 29.99 in 10.0 mi West 3.5 mph - N/A   Clear
11:15 PM 44.4 °F 41.2 °F 29.5 °F 56% 29.98 in 10.0 mi West 5.8 mph - N/A   Clear
11:35 PM 41.4 °F 39.4 °F 27.9 °F 59% 29.98 in 10.0 mi South 3.5 mph - N/A   Clear
11:55 PM 39.6 °F 37.4 °F 27.5 °F 62% 29.98 in 10.0 mi SE 3.5 mph - N/A   Clear